Location: Degersen
(52.2871°N, 9.5716°E)
Time: 06:57:36
(UTC+00:00)

ATLAS 2AS CENTAUR R/B - Pass Details

Date: 20 January 2026
Orbit: 1050 x 1161 km, 63.7° (Epoch: 18 February)

Event Time Altitude Azimuth Distance (km) Brightness Sun altitude
Exits shadow 05:25:01 25° 283° (WNW) 1,968 3.5 -16.9°
Maximum altitude 05:27:42 34° 243° (WSW) 1,655 3.3 -16.5°
Drops below altitude 10° 05:33:38 10° 181° (S) 2,866 5.1 -15.6°
Sets 05:36:30 0° 172° (S) 3,825 5.9 -15.2°
